Change the Weather History Date:

Friday, January 18, 2013

  Actual Average (KVPZ) Record (KVPZ)
Temperature  
Mean Temperature 27 °F 23 °F  
Max Temperature 37 °F 31 °F 46 °F (1999)
Min Temperature 17 °F 16 °F 0 °F (2003)
Degree Days  
Heating Degree Days 38 42  
Month to date heating degree days 747  
Since 1 July heating degree days 3149  
Cooling Degree Days 0 0  
Month to date cooling degree days 0  
Year to date cooling degree days 0  
Moisture  
Dew Point 23 °F    
Average Humidity 76    
Maximum Humidity 93    
Minimum Humidity 56    
Precipitation  
Precipitation 0.00 in 0.06 in 0.07 in (2011)
Month to date precipitation 0.98  
Year to date precipitation 0.98  
Sea Level Pressure  
Sea Level Pressure 30.26 in    
Wind  
Wind Speed 11 mph (SSW)    
Max Wind Speed 25 mph    
Max Gust Speed 37 mph    
Visibility 10 miles    
Events      
T = Trace of Precipitation, MM = Missing Value Source: NWS Daily Summary

Daily Weather History Graph

Daily Weather History Graph

Search for Another Location

Airport or City:

Trip Planner

Search our weather history database for the weather conditions in past years. The results will help you decide how hot, cold, wet, or windy it might be!

Date:

Astronomy

Jan. 18, 2013 Rise Set
Actual Time 7:09 AM CST 4:49 PM CST
Civil Twilight 6:39 AM CST 5:19 PM CST
Nautical Twilight 6:06 AM CST 5:52 PM CST
Astronomical Twilight 5:33 AM CST 6:25 PM CST
Moon 10:44 AM CST (1/18) No Moon Set
Length of Visible Light 10h 39m
Length of Day
9h 39m
Waxing Crescent, 47% of the Moon is Illuminated
Jan 18
Waxing Crescent
Jan 18
First Quarter
Jan 26
Full
Feb 3
Last Quarter
Feb 10
New

Hourly Weather History & Observations

Time (CST) Temp. Windchill Dew Point Humidity Pressure Visibility Wind Dir Wind Speed Gust Speed Precip Events Conditions
12:15 AM 19.4 °F 12.8 °F 15.8 °F 86% 30.41 in 10.0 mi SW 4.6 mph - N/A   Clear
12:35 AM 19.4 °F 12.8 °F 15.8 °F 86% 30.43 in 10.0 mi SW 4.6 mph - N/A   Clear
12:55 AM 19.4 °F 14.3 °F 17.6 °F 93% 30.44 in 10.0 mi WSW 3.5 mph - N/A   Clear
1:15 AM 19.4 °F 11.5 °F 15.8 °F 86% 30.44 in 10.0 mi SW 5.8 mph - N/A   Clear
1:35 AM 19.4 °F 11.5 °F 15.8 °F 86% 30.44 in 10.0 mi WSW 5.8 mph - N/A   Clear
1:55 AM 19.4 °F 11.5 °F 15.8 °F 86% 30.44 in 10.0 mi SW 5.8 mph - N/A   Clear
2:15 AM 19.4 °F 11.5 °F 17.6 °F 93% 30.44 in 10.0 mi WSW 5.8 mph - N/A   Clear
2:55 AM 19.4 °F 11.5 °F 15.8 °F 86% 30.44 in 10.0 mi SW 5.8 mph - N/A   Scattered Clouds
3:15 AM 19.4 °F 11.5 °F 15.8 °F 86% 30.44 in 10.0 mi SW 5.8 mph - N/A   Clear
3:35 AM 19.4 °F 11.5 °F 17.6 °F 93% 30.44 in 10.0 mi SW 5.8 mph - N/A   Clear
3:55 AM 19.4 °F 11.5 °F 17.6 °F 93% 30.43 in 10.0 mi SW 5.8 mph - N/A   Clear
4:15 AM 19.4 °F 12.8 °F 17.6 °F 93% 30.44 in 10.0 mi SW 4.6 mph - N/A   Clear
4:35 AM 21.2 °F 13.6 °F 17.6 °F 86% 30.44 in 10.0 mi SW 5.8 mph - N/A   Scattered Clouds
4:55 AM 19.4 °F 14.3 °F 17.6 °F 93% 30.43 in 10.0 mi SW 3.5 mph - N/A   Clear
5:15 AM 17.6 °F 12.3 °F 15.8 °F 93% 30.43 in 10.0 mi SSW 3.5 mph - N/A   Clear
5:35 AM 19.4 °F 14.3 °F 17.6 °F 93% 30.42 in 10.0 mi South 3.5 mph - N/A   Clear
6:35 AM 21.2 °F 14.9 °F 19.4 °F 93% 30.43 in 10.0 mi South 4.6 mph - N/A   Clear
6:55 AM 21.2 °F 16.4 °F 19.4 °F 93% 30.43 in 10.0 mi SSW 3.5 mph - N/A   Clear
7:15 AM 21.2 °F 14.9 °F 19.4 °F 93% 30.43 in 10.0 mi SSW 4.6 mph - N/A   Clear
7:35 AM 23.0 °F 15.8 °F 21.2 °F 93% 30.42 in 10.0 mi South 5.8 mph - N/A   Clear
7:55 AM 24.8 °F 16.9 °F 21.2 °F 86% 30.42 in 10.0 mi South 6.9 mph - N/A   Clear
8:15 AM 26.6 °F 19.1 °F 23.0 °F 86% 30.41 in 10.0 mi South 6.9 mph - N/A   Clear
8:35 AM 26.6 °F 17.5 °F 23.0 °F 86% 30.41 in 10.0 mi South 9.2 mph - N/A   Clear
8:55 AM 28.4 °F 18.5 °F 23.0 °F 80% 30.41 in 10.0 mi South 11.5 mph - N/A   Clear
9:15 AM 30.2 °F 19.8 °F 24.8 °F 80% 30.41 in 10.0 mi South 13.8 mph 19.6 mph N/A   Clear
9:55 AM 32.0 °F 20.1 °F 24.8 °F 75% 30.39 in 10.0 mi SSW 19.6 mph 24.2 mph N/A   Clear
10:15 AM 32.0 °F 20.1 °F 26.6 °F 80% 30.39 in 10.0 mi SSW 19.6 mph 25.3 mph N/A   Clear
10:35 AM 33.8 °F 23.2 °F 26.6 °F 75% 30.37 in 10.0 mi South 17.3 mph 24.2 mph N/A   Clear
10:55 AM 33.8 °F 21.9 °F 26.6 °F 75% 30.36 in 10.0 mi South 21.9 mph 27.6 mph N/A   Clear
11:15 AM 33.8 °F 21.9 °F 26.6 °F 75% 30.34 in 10.0 mi SSW 21.9 mph 27.6 mph N/A   Clear
11:35 AM 35.6 °F 24.0 °F 26.6 °F 70% 30.33 in 10.0 mi South 23.0 mph 29.9 mph N/A   Clear
11:55 AM 35.6 °F 23.7 °F 26.6 °F 70% 30.31 in 10.0 mi South 24.2 mph 29.9 mph N/A   Clear
12:15 PM 35.6 °F 23.7 °F 26.6 °F 70% 30.29 in 10.0 mi SSW 24.2 mph 28.8 mph N/A   Clear
12:35 PM 35.6 °F 24.2 °F 26.6 °F 70% 30.27 in 10.0 mi South 21.9 mph 29.9 mph N/A   Clear
12:55 PM 37.4 °F 26.6 °F 26.6 °F 65% 30.25 in 10.0 mi South 21.9 mph 28.8 mph N/A   Clear
1:15 PM 35.6 °F 24.5 °F 24.8 °F 65% 30.25 in 10.0 mi South 20.7 mph 29.9 mph N/A   Clear
1:35 PM 37.4 °F 27.2 °F 24.8 °F 60% 30.23 in 10.0 mi SSW 19.6 mph 27.6 mph N/A   Clear
1:55 PM 37.4 °F 26.9 °F 24.8 °F 60% 30.22 in 10.0 mi South 20.7 mph 28.8 mph N/A   Clear
2:15 PM 37.4 °F 27.2 °F 23.0 °F 56% 30.20 in 10.0 mi South 19.6 mph 31.1 mph N/A   Clear
2:35 PM 37.4 °F 26.9 °F 24.8 °F 60% 30.19 in 10.0 mi South 20.7 mph 26.5 mph N/A   Clear
2:55 PM 37.4 °F 25.9 °F 24.8 °F 60% 30.18 in 10.0 mi South 25.3 mph 29.9 mph N/A   Clear
3:15 PM 37.4 °F 26.6 °F 24.8 °F 60% 30.16 in 10.0 mi South 21.9 mph 25.3 mph N/A   Clear
3:35 PM 37.4 °F 27.5 °F 24.8 °F 60% 30.15 in 10.0 mi South 18.4 mph 24.2 mph N/A   Clear
3:55 PM 37.4 °F 27.5 °F 24.8 °F 60% 30.14 in 10.0 mi South 18.4 mph 25.3 mph N/A   Clear
4:15 PM 37.4 °F 27.2 °F 23.0 °F 56% 30.12 in 10.0 mi South 19.6 mph 27.6 mph N/A   Clear
4:35 PM 35.6 °F 25.5 °F 24.8 °F 65% 30.11 in 10.0 mi South 17.3 mph 21.9 mph N/A   Clear
4:55 PM 35.6 °F 25.9 °F 26.6 °F 70% 30.11 in 10.0 mi South 16.1 mph 23.0 mph N/A   Clear
5:15 PM 33.8 °F 23.5 °F 26.6 °F 75% 30.10 in 10.0 mi South 16.1 mph 23.0 mph N/A   Clear
5:35 PM 35.6 °F 25.2 °F 26.6 °F 70% 30.09 in 10.0 mi South 18.4 mph 24.2 mph N/A   Clear
5:55 PM 35.6 °F 24.0 °F 24.8 °F 65% 30.08 in 10.0 mi South 23.0 mph 27.6 mph N/A   Clear
6:15 PM 35.6 °F 24.2 °F 26.6 °F 70% 30.07 in 10.0 mi South 21.9 mph 29.9 mph N/A   Clear
6:35 PM 35.6 °F 24.2 °F 26.6 °F 70% 30.07 in 10.0 mi South 21.9 mph 31.1 mph N/A   Clear
6:55 PM 35.6 °F 24.2 °F 26.6 °F 70% 30.06 in 10.0 mi South 21.9 mph 32.2 mph N/A   Clear
7:15 PM 35.6 °F 24.0 °F 26.6 °F 70% 30.06 in 10.0 mi South 23.0 mph 29.9 mph N/A   Clear
7:55 PM 35.6 °F 23.7 °F 26.6 °F 70% 30.05 in 10.0 mi SSW 24.2 mph 36.8 mph N/A   Clear
8:15 PM 37.4 °F 27.5 °F 26.6 °F 65% 30.05 in 10.0 mi SSW 18.4 mph 29.9 mph N/A   Clear
8:55 PM 37.4 °F 27.8 °F 28.4 °F 70% 30.05 in 10.0 mi SSW 17.3 mph 23.0 mph N/A   Clear
9:15 PM 37.4 °F 27.8 °F 28.4 °F 70% 30.05 in 10.0 mi SSW 17.3 mph 24.2 mph N/A   Clear
9:35 PM 37.4 °F 27.2 °F 28.4 °F 70% 30.04 in 10.0 mi SSW 19.6 mph 23.0 mph N/A   Clear
9:55 PM 35.6 °F 25.2 °F 28.4 °F 75% 30.04 in 10.0 mi SSW 18.4 mph 24.2 mph N/A   Clear
10:15 PM 35.6 °F 24.8 °F 28.4 °F 75% 30.04 in 10.0 mi SSW 19.6 mph 26.5 mph N/A   Clear
10:35 PM 35.6 °F 25.2 °F 28.4 °F 75% 30.03 in 10.0 mi SSW 18.4 mph - N/A   Clear
10:55 PM 35.6 °F 25.5 °F 28.4 °F 75% 30.03 in 10.0 mi SSW 17.3 mph 24.2 mph N/A   Clear
11:15 PM 37.4 °F 26.6 °F 28.4 °F 70% 30.03 in 10.0 mi SSW 21.9 mph 32.2 mph N/A   Clear
11:35 PM 37.4 °F 26.6 °F 28.4 °F 70% 30.03 in 10.0 mi SSW 21.9 mph 29.9 mph N/A   Clear
11:55 PM 37.4 °F 26.9 °F 28.4 °F 70% 30.03 in 10.0 mi SSW 20.7 mph 31.1 mph N/A   Clear